الصفحة الرئيسية
METAR-TAF:

METAR-TAF

مطار :

Torrington Municipal Airport

Torrington, وايومنغ, الولايات المتحدة

دائرة عرض: 42-03-53N, خط طول: 104-09-10W, ارتفاع: 1282 متر

مراقبة الطقس الحالي

تاريخ ووقت الإصدار 20 دقيقة قبل الساعة 19:53UTC
رياح هادئة
درجة الحرارة 12°درجة مئوية
الرطوبة 28%
ضغط 1015 hPa
الرؤية: 16.1 كم
سماء صافية

METAR: KTOR 171953Z AUTO 00000KT 10SM CLR 12/M06 A2997 RMK AO2 SLP158 T01171056

زمن: 13:13 (20:13 UTC)


TAF: مفقودة

أرصاد الطقس والتوقعات من أكثر من 4000 مطار (تقارير الطقس للمطار METAR والتنبؤ بالطقس بالمطارTAF).

المحطات المتاحة هي النقط الصفراء والحمراء على الخريطة.

حرك المؤشر فوق النقطة لمعرفة اسم المحطة.

ثم انقر لمعرفة أرصاد وتوقعات الطقس.

لتغيير الخارطة: اضغط على الأزرار الخضراء مع رمز الصليب الأسود للتكبير. على الزر الأخضر مع شرطة للتصغير، أو على الأسهم الخضراء للخرائط المجاورة.


METAR-TAF: